Weather History for Waukegan, IL

Change the Weather History Date:

Monday, January 7, 2013

  Actual Average Record
Temperature  
Mean Temperature 29 °F -  
Max Temperature 41 °F 31 °F 64 °F (2008)
Min Temperature 16 °F 16 °F -14 °F (2014)
Degree Days  
Heating Degree Days 36 41  
Month to date heating degree days 291 286  
Since 1 July heating degree days 2670 2835  
Cooling Degree Days 0 0  
Month to date cooling degree days 0 0  
Year to date cooling degree days 0 0  
Moisture  
Dew Point 20 °F    
Average Humidity 69    
Maximum Humidity 92    
Minimum Humidity 46    
Precipitation  
Precipitation 0.00 in 0.05 in 0.04 in (2007)
Month to date precipitation 0.07 0.32  
Year to date precipitation 0.07 0.32  
Sea Level Pressure  
Sea Level Pressure 30.21 in    
Wind  
Wind Speed 13 mph (SSW)    
Max Wind Speed 28 mph    
Max Gust Speed 35 mph    
Visibility 8 miles    
Events      
T = Trace of Precipitation, MM = Missing Value Source: NWS Daily Summary

Daily Weather History Graph

Daily Weather History Graph

Search for Another Location

Airport:

Trip Planner

Search our weather history database for the weather conditions in past years. The results will help you decide how hot, cold, wet, or windy it might be!

Date:

Astronomy

Jan. 07, 2013 Rise Set
Actual Time 7:20 AM CST 4:35 PM CST
Civil Twilight 6:49 AM CST 5:07 PM CST
Nautical Twilight 6:14 AM CST 5:42 PM CST
Astronomical Twilight 5:40 AM CST 6:16 PM CST
Moon 2:42 AM CST (1/7) 12:47 PM CST (1/7)
Length of Visible Light 10h 17m
Length of Day
9h 14m
Waning Crescent, 22% of the Moon is Illuminated
Jan 7
Waning Crescent
Jan 11
New
Jan 18
First Quarter
Jan 26
Full
Feb 3
Last Quarter

Hourly Weather History & Observations

Time (CST) Temp. Windchill Dew Point Humidity Pressure Visibility Wind Dir Wind Speed Gust Speed Precip Events Conditions
12:52 AM 17.1 °F 7.6 °F 14.0 °F 88% 30.33 in 4.0 mi SW 6.9 mph - N/A   Clear
1:52 AM 16.0 °F 10.4 °F 14.0 °F 92% 30.35 in 4.0 mi SW 3.5 mph - N/A   Clear
2:52 AM 17.1 °F 7.6 °F 14.0 °F 88% 30.34 in 5.0 mi SSW 6.9 mph - N/A   Clear
3:52 AM 17.1 °F 7.6 °F 12.9 °F 84% 30.33 in 6.0 mi SSW 6.9 mph - N/A   Clear
4:52 AM 18.0 °F 5.4 °F 14.0 °F 84% 30.32 in 8.0 mi SSW 11.5 mph - N/A   Clear
5:52 AM 19.0 °F 6.8 °F 15.1 °F 85% 30.32 in 8.0 mi SSW 11.5 mph - N/A   Clear
6:52 AM 19.9 °F 8.6 °F 15.1 °F 81% 30.32 in 8.0 mi SSW 10.4 mph - N/A   Clear
7:52 AM 21.0 °F 9.3 °F 16.0 °F 81% 30.32 in 8.0 mi South 11.5 mph - N/A   Clear
8:52 AM 26.1 °F 14.0 °F 19.0 °F 75% 30.29 in 9.0 mi South 15.0 mph 23.0 mph N/A   Clear
9:52 AM 30.0 °F 17.2 °F 19.0 °F 64% 30.27 in 10.0 mi South 20.7 mph 27.6 mph N/A   Clear
10:52 AM 34.0 °F 23.0 °F 19.9 °F 56% 30.24 in 10.0 mi SSW 18.4 mph 24.2 mph N/A   Clear
11:52 AM 37.0 °F 27.4 °F 21.0 °F 52% 30.19 in 10.0 mi SW 17.3 mph 27.6 mph N/A   Clear
12:52 PM 39.0 °F 30.3 °F 21.9 °F 50% 30.15 in 10.0 mi SSW 16.1 mph 26.5 mph N/A   Clear
1:52 PM 41.0 °F 32.2 °F 23.0 °F 49% 30.14 in 10.0 mi SSW 18.4 mph 28.8 mph N/A   Clear
2:52 PM 39.9 °F 31.4 °F 23.0 °F 51% 30.12 in 10.0 mi South 16.1 mph 29.9 mph N/A   Clear
3:52 PM 39.0 °F 29.9 °F 24.1 °F 55% 30.12 in 10.0 mi South 17.3 mph 24.2 mph N/A   Clear
4:52 PM 37.0 °F 29.3 °F 24.1 °F 59% 30.12 in 10.0 mi SSW 11.5 mph - N/A   Clear
5:52 PM 35.1 °F 26.4 °F 25.0 °F 67% 30.13 in 10.0 mi SSW 12.7 mph 23.0 mph N/A   Clear
6:52 PM 34.0 °F 24.6 °F 25.0 °F 70% 30.12 in 9.0 mi SSW 13.8 mph - N/A   Clear
7:52 PM 33.1 °F 24.4 °F 26.1 °F 75% 30.12 in 8.0 mi SSW 11.5 mph - N/A   Clear
8:52 PM 32.0 °F 22.1 °F 26.1 °F 79% 30.12 in 7.0 mi SSW 13.8 mph - N/A   Clear
9:52 PM 30.9 °F 22.2 °F 26.1 °F 82% 30.13 in 7.0 mi SSW 10.4 mph - N/A   Clear
10:52 PM 30.0 °F 22.4 °F 25.0 °F 82% 30.13 in 6.0 mi South 8.1 mph - N/A   Haze
11:52 PM 30.0 °F 21.1 °F 25.0 °F 82% 30.11 in 6.0 mi SSW 10.4 mph - N/A   Haze